Location: Unspecified
(0.0000°N, 0.0000°E)
Time: 12:48:30
(UTC+00:00)

Vanguard 2 - Pass Details

Date: 21 September 2019
Orbit: 554 x 2937 km, 32.9° (Epoch: 13 October)

Event Time Altitude Azimuth Distance (km) Brightness Sun altitude
Rises 00:44:30 0° 249° (WSW) 6,733 - -77.2°
Reaches altitude 10° 00:49:13 10° 254° (WSW) 5,766 - -76.0°
Maximum altitude 01:05:59 48° 323° (NW) 3,203 - -71.8°
Drops below altitude 10° 01:18:50 10° 34° (NE) 4,479 - -68.6°
Exits shadow 01:19:44 - 36° (NE) 4,666 11.6 -68.4°
Sets 01:22:02 0° 41° (NE) 5,183 12.0 -67.8°
